NZWN

Wellington International Airport

Airport
ICAO code
NZWN
IATA Code
WLG
Summary
ICAO Region
APAC
ICAO Territory
Location

Rongotai, Wellington,

Serving
Wellington
Elevation
42 ft
Coordinates
41° 19' 40" S , 174° 48' 38" E
KCC
Metar
NZWN 191430Z AUTO 03003KT 9999 SCT037/// BKN048/// 11/09 Q1005

Description

Wellington International Airport (formerly known as Rongotai Airport) is located in the suburb of Rongotai in Wellington, New Zealand.

Climatology

Temperate Marine climate/Oceanic climate (Köppen climate classification Cfb). Moderately cool summer and comparatively warm winter with a temperature range of only 14°C.

Runways

Designator Length Width Surface Rops
16/34 1936 45 ASP Yes/Yes

SKYbrary Partners:

Safety knowledge contributed by: